This is the latest recevied weather packets stored in our database for station/object DM3DP. If no packets are shown the sender has not sent any weather packets the latest 1 day(s).
| Time | Temp. | Humidity | Pressure | Rain* | Wind** | Luminosity | Snow |
|---|---|---|---|---|---|---|---|
| 1778011761 | 12.78° C | 99% | 1005.1 hPa | 1.27 mm | 1.34 m/s, 169° | 0 W/m² | - |
| 1778011431 | 12.78° C | 99% | 1005.1 hPa | 1.27 mm | 1.79 m/s, 180° | 0 W/m² | - |
| 1778011102 | 12.78° C | 99% | 1005.1 hPa | 1.27 mm | 0.89 m/s, 184° | 0 W/m² | - |
| 1778010771 | 12.78° C | 99% | 1005.1 hPa | 1.27 mm | 1.34 m/s, 258° | 0 W/m² | - |
| 1778010441 | 12.78° C | 99% | 1005.1 hPa | 1.52 mm | 1.34 m/s, 301° | 0 W/m² | - |
| 1778010112 | 12.78° C | 99% | 1005.1 hPa | 1.27 mm | 1.34 m/s, 183° | 0 W/m² | - |
| 1778009782 | 12.78° C | 99% | 1005.1 hPa | 1.52 mm | 0.89 m/s, 173° | 0 W/m² | - |
| 1778009452 | 12.78° C | 99% | 1005.1 hPa | 1.52 mm | 1.34 m/s, 192° | 0 W/m² | - |
| 1778009121 | 13.33° C | 99% | 1005 hPa | 1.52 mm | 0.45 m/s, 310° | 0 W/m² | - |
| 1778008791 | 13.33° C | 99% | 1005 hPa | 1.52 mm | 0.45 m/s, 174° | 0 W/m² | - |
| 1778008461 | 13.33° C | 99% | 1005 hPa | 1.52 mm | 0.89 m/s, 169° | 0 W/m² | - |
| 1778008131 | 13.33° C | 99% | 1005 hPa | 1.52 mm | 0.89 m/s, 273° | 0 W/m² | - |
| 1778007801 | 13.33° C | 99% | 1005 hPa | 1.78 mm | 0.89 m/s, 188° | 0 W/m² | - |
| 1778007471 | 13.33° C | 99% | 1005 hPa | 1.78 mm | 0.45 m/s, 244° | 0 W/m² | - |
| 1778007141 | 13.33° C | 99% | 1005 hPa | 2.03 mm | 0.45 m/s, 296° | 0 W/m² | - |
| 1778006812 | 13.33° C | 99% | 1005 hPa | 1.78 mm | 0.89 m/s, 182° | 0 W/m² | - |
| 1778006481 | 13.33° C | 99% | 1005 hPa | 1.78 mm | 0.89 m/s, 76° | 0 W/m² | - |
| 1778006151 | 13.33° C | 99% | 1005 hPa | 1.78 mm | 0.89 m/s, 178° | 1 W/m² | - |
| 1778005821 | 13.33° C | 99% | 1005.1 hPa | 1.78 mm | 0.89 m/s, 358° | 2 W/m² | - |
| 1778005491 | 13.33° C | 99% | 1005.1 hPa | 1.78 mm | 1.34 m/s, 348° | 3 W/m² | - |
| 1778005161 | 13.33° C | 99% | 1005.1 hPa | 1.78 mm | 0.89 m/s, 183° | 4 W/m² | - |
| 1778004831 | 13.89° C | 99% | 1005.1 hPa | 1.52 mm | 2.24 m/s, 151° | 4 W/m² | - |
| 1778004501 | 13.89° C | 99% | 1005.1 hPa | 1.52 mm | 0.89 m/s, 298° | 3 W/m² | - |
| 1778004171 | 13.89° C | 99% | 1005.1 hPa | 1.27 mm | 0.45 m/s, 191° | 4 W/m² | - |
| 1778003841 | 13.89° C | 99% | 1005.1 hPa | 1.27 mm | 1.34 m/s, 111° | 5 W/m² | - |
* Rain latest hour (hover to see other rain measurements)
** Current wind speed in m/s (hover to see current wind gust speed)